SCP
0 0 0 0 0 0 0 0 0 0 0 0 0 0 0 0 -0 0 0 0 0 0 0 0 0 0 0 0 0 0 0 0 0 0 0 0 0 0 0 0 0 0 0 0
0 0 0 0 0 0 0 0 0 0 0 0 0 0 0 0 0 0 0 0 0 0 0 0 0 0 0 0 0 0 0 0 0 0 0 0 0 0 0 0 0 0 0 0
0 0 0 0 0 0 0 0 0 0 0 0 0 -0 -0 -0 0 0 0 0 0 0 0 0 0 0 0 0 0 0 0 0 0 0 0 0 0 0 0 0 0 0 0 0
0 0 0 0 0 0 0 0 0 0 0 0 0 0 -0 -0 0 0 0 0 0 0 0 0 0 0 0 0 0 0 0 0 0 0 0 0 0 0 0 0 0 0 0 0
0 0 0 0 0 0 0 0 0 0 0 0 0 0 0 0 0 0 0 0 0 0 0 0 0 0 0 0 0 0 0 0 0 0 0 0 0 0 0 0 0 0 0 0
0 0 0 0 0 0 0 0 0 0 0 0 0 0 0 0 0 0 0 0 0 0 0 0 0 0 0 0 0 0 0 0 0 0 0 0 0 0 0 0 0 0 0 0
0 0 0 0 0 0 0 0 0 0 0 0 0 0 0 0 0 0 0 0 0 0 0 0 0 0 0 0 0 0 0 0 0 0 0 0 0 0 0 0 0 0 0 0
0 0 0 0 0 0 0 0 0 0 0 0 0 0 0 0 0 0 0 0 0 0 0 0 0 0 0 0 0 0 0 0 0 0 0 0 0 0 0 0 0 0 0 0
0 0 0 0 0 0 0 0 0 0 0 0 0 0 0 0 0 0 0 0 0 0 0 0 0 0 0 0 0 0 0 0 0 0 0 0 0 0 0 0 0 0 0 0
0 0 0 0 0 0 0 0 0 0 0 0 0 0 0 0 0 0 0 0 0 0 0 0 0 0 0 0 0 0 0 0 0 0 0 0 0 0 0 0 0 0 0 0
0 0 0 0 0 0 0 0 0 0 0 0 0 0 0 0 0 0 0 0 0 0 0 0 0 0 0 0 0 0 0 0 0 0 0 0 0 0 0 0 0 0 0 0
0 0 0 0 0 0 0 0 0 0 0 0 0 0 0 0 0 0 0 0 0 0 0 0 0 0 0 0 0 0 0 0 0 0 0 0 0 0 0 0 0 0 0 0
0 0 0 0 0 0 0 0 0 0 0 0 0 0 0 0 0 0 0 0 0 0 0 0 0 0 0 0 0 0 0 0 0 0 0 0 0 0 0 0 0 0 0 0
0 0 0 0 0 0 0 0 0 0 0 0 0 0 0 0 0 0 0 0 0 0 0 0 0 0 0 0 0 0 0 0 0 0 0 0 0 0 0 0 0 0 0 0
0 0 0 0 0 0 0 0 0 0 0 0 0 0 0 0 0 0 0 0 0 0 0 0 0 0 0 0 0 0 0 0 0 0 0 0 0 0 0 0 0 0 0 0
0 0 0 0 0 0 0 0 0 0 0 0 0 0 0 0 0 0 0 0 0 0 0 0 0 0 -0 -0 -0 0 0 0 0 0 0 0 0 0 0 0 0 0 0 0
0 0 0 0 0 0 0 0 0 0 0 0 0 0 0 0 0 0 0 0 0 0 0 0 0 0 0 -0 -0 -0 -0 -0 -0 0 0 0 0 0 0 0 0 0 0 0
0 0 0 0 0 0 0 0 0 0 0 0 0 0 0 0 0 0 0 0 0 0 0 0 0 0 0 0 0 -0 -0 -0 -0 -0 -0 0 0 0 0 0 0 0 0 0
0 0 0 0 0 0 0 0 0 0 0 0 0 0 0 0 0 0 0 0 0 0 0 0 0 0 0 0 0 0 0 -0 0 0 0 0 0 0 0 0 0 0 0 0
0 0 0 0 0 0 0 0 0 0 0 0 0 0 0 0 0 0 0 0 0 0 0 0 0 0 0 0 0 0 0 0 0 0 0 0 0 0 0 0 0 0 0 0
0 0 0 0 0 0 0 0 0 0 0 0 0 0 0 0 0 0 0 0 0 0 0 0 0 0 0 0 0 0 0 0 0 0 0 0 0 0 0 0 0 0 0 0
0 0 0 0 0 0 0 0 0 0 0 0 0 0 0 0 0 0 0 0 0 0 0 0 0 0 0 0 0 0 0 0 0 0 0 0 0 0 0 0 0 0 0 0
0 0 0 0 0 0 0 0 0 0 0 0 0 0 0 0 0 0 0 0 0 0 0 0 0 0 0 0 0 0 0 0 0 0 0 0 0 0 0 0 0 0 0 0
0 0 0 0 0 0 0 0 0 0 0 0 0 0 0 0 0 0 0 0 0 0 0 0 0 0 0 0 0 0 0 0 0 0 0 0 0 0 0 0 0 0 0 0
0 0 0 0 0 0 0 0 0 0 0 0 0 0 0 0 0 0 0 0 0 0 0 0 0 0 0 0 0 0 0 0 0 0 0 0 0 0 0 0 0 0 0 0
0 0 0 0 0 0 0 0 0 0 0 0 0 0 0 0 0 0 0 0 0 0 0 0 0 0 0 0 0 0 0 0 0 0 0 0 0 0 0 0 0 0 0 0
Wind_Speed
4 7 11 15 16 17 15 16 21 22 20 14 19 19 18 21 22 23 19 14 14 13 13 14 16 17 16 14 11 10 10 12 12 11 12 12 13 12 12 12 14 17 16 17
6 13 18 10 4 9 12 16 21 20 13 8 14 17 17 17 17 14 12 12 11 12 15 19 19 19 19 17 15 10 8 8 11 10 10 9 10 10 11 9 12 15 16 17
14 6 4 6 10 11 14 14 15 15 13 8 10 10 5 9 12 6 5 4 8 13 18 20 21 21 20 20 19 13 10 6 8 9 6 4 5 4 7 10 10 12 15 16
11 5 3 6 10 11 12 10 12 12 10 8 7 14 5 11 11 4 3 9 15 17 18 19 19 20 21 20 18 18 14 8 4 6 7 9 8 8 8 7 8 11 14 15
7 4 6 9 9 9 8 3 1 4 7 10 6 11 7 6 6 1 8 14 16 16 17 18 19 18 20 21 20 19 17 13 7 4 7 8 9 7 5 5 8 10 11 14
7 3 6 6 2 4 3 2 0 2 4 11 6 8 8 3 0 6 11 15 15 16 17 18 18 20 22 22 21 20 19 18 13 8 6 7 9 9 8 7 7 8 8 10
8 6 5 4 4 3 5 4 6 6 6 10 1 7 7 0 9 9 10 12 15 17 17 19 21 22 22 22 21 20 21 21 18 14 10 8 9 10 11 9 8 9 8 9
11 12 5 6 8 6 7 8 9 9 12 15 3 11 4 9 12 12 14 15 16 16 16 17 18 18 17 18 18 19 20 19 19 18 15 11 10 8 8 9 9 9 8 9
9 8 1 4 5 5 6 9 9 8 8 13 16 16 5 9 9 11 12 12 13 13 14 15 15 15 15 16 16 16 16 16 16 17 17 16 14 11 11 11 10 9 9 8
5 11 7 3 3 6 8 4 4 8 10 18 24 27 21 10 3 6 8 10 11 11 11 12 11 12 12 12 13 14 15 15 15 15 14 12 15 14 12 11 11 11 11 10
7 9 11 7 12 16 9 8 9 8 8 10 15 16 5 2 5 3 4 6 8 9 9 9 9 9 10 11 12 14 14 15 15 14 13 13 13 14 14 12 12 11 11 10
7 7 11 14 9 7 12 15 15 14 15 14 15 15 4 5 6 4 3 2 3 6 8 8 8 9 10 11 12 12 13 13 14 13 12 12 12 12 13 13 13 12 12 11
3 4 8 10 8 3 9 10 14 13 10 13 17 13 5 5 5 5 5 4 2 3 6 8 8 9 10 11 10 11 11 11 12 12 12 12 13 13 14 13 13 12 12 11
1 7 14 22 20 8 8 8 9 12 12 17 22 23 12 12 9 6 5 3 2 2 5 7 7 8 9 10 11 11 11 11 10 10 10 11 11 12 13 14 14 14 13 12
2 8 13 17 18 18 19 20 21 23 22 22 23 24 23 15 6 5 4 3 3 3 6 7 7 7 8 9 10 11 12 11 11 11 11 10 10 11 11 12 13 13 13 12
4 9 14 19 22 22 23 23 24 24 23 24 26 28 15 2 3 4 5 5 5 6 8 9 9 9 8 9 10 10 11 11 12 12 12 12 11 10 10 11 12 12 12 13
5 8 13 19 17 15 19 18 23 24 26 27 28 13 6 1 4 5 6 7 8 8 10 11 11 11 9 10 10 11 11 11 10 11 11 10 11 12 12 13 13 13 13 13
10 10 8 10 8 22 13 6 15 22 19 6 3 4 2 4 6 7 8 10 11 10 10 11 12 13 12 12 11 11 11 11 12 12 11 11 12 13 14 15 15 15 14 14
17 14 10 9 16 20 14 7 8 11 8 6 6 4 4 5 7 10 11 13 14 12 10 10 10 12 13 13 13 12 12 13 13 14 14 13 12 13 15 16 18 17 16 16
8 12 10 8 11 12 8 2 2 1 5 6 7 6 6 5 9 11 9 9 12 12 9 9 10 12 13 14 13 13 15 15 16 16 16 15 14 13 15 18 19 18 17 18
3 6 11 14 13 11 4 4 5 5 3 5 10 10 10 11 12 13 13 11 10 9 9 9 11 12 13 14 13 16 17 17 16 16 16 17 17 16 18 19 18 19 19 20
6 6 7 6 9 10 4 7 7 6 3 6 11 14 14 15 15 14 14 13 11 9 10 11 11 14 15 14 14 18 20 19 17 17 18 19 18 18 17 19 19 19 19 20
9 8 5 9 8 4 6 9 10 11 13 17 18 16 14 15 15 14 13 10 8 10 10 11 12 15 16 14 14 18 20 19 19 19 20 20 21 19 18 19 20 18 17 17
12 11 11 12 17 19 18 20 21 21 20 19 17 15 13 13 12 9 7 7 9 9 10 10 12 15 17 16 15 16 18 19 19 21 22 20 20 20 18 16 16 16 16 16
13 6 11 18 21 21 22 22 22 21 19 17 10 5 5 5 6 6 6 7 8 9 10 10 12 15 18 18 17 17 17 18 21 22 21 20 19 19 18 17 16 18 17 18
17 17 18 20 22 18 19 18 16 14 12 5 4 4 2 1 4 6 6 7 9 10 11 12 14 16 18 18 19 18 16 17 20 20 19 17 16 16 16 17 18 25 28 33
Wind_Direction
155 195 228 238 231 255 286 285 281 281 286 292 286 290 292 287 286 282 292 310 312 322 337 354 358 353 344 338 322 285 246 221 206 203 209 212 213 211 212 211 207 202 194 189
163 225 239 259 252 248 256 267 274 282 289 274 285 291 287 279 270 279 309 309 322 348 8 13 12 12 8 4 355 334 283 240 215 211 210 215 218 219 217 214 215 210 201 193
224 241 225 212 237 250 255 258 271 280 308 281 294 284 242 269 267 291 300 328 35 30 23 20 19 17 14 12 6 359 339 285 234 223 220 217 222 238 217 215 215 216 213 205
243 262 182 208 241 244 261 261 264 280 294 295 324 303 257 262 285 317 38 55 43 36 32 30 25 22 20 17 17 17 11 354 295 237 223 219 221 230 230 224 218 215 220 220
235 207 184 211 230 209 238 8 280 268 273 283 244 268 308 246 270 172 72 52 43 38 35 33 30 27 27 26 26 23 23 19 359 287 252 244 246 255 266 250 232 217 213 222
262 222 214 224 223 207 173 117 40 241 261 274 255 240 307 238 228 58 68 54 43 37 36 33 30 30 30 29 31 30 30 26 13 348 303 272 269 271 267 254 241 222 211 214
271 233 227 197 196 158 181 236 277 268 250 268 143 244 253 262 51 61 72 58 45 36 32 29 29 28 27 25 27 30 33 30 21 10 349 319 296 286 278 271 254 235 219 213
278 273 219 206 225 224 196 214 236 266 272 283 261 253 279 90 75 60 51 45 39 35 31 31 30 30 29 27 25 28 31 30 25 20 9 352 329 307 295 286 275 258 242 229
273 278 25 204 210 189 193 217 241 256 270 276 263 259 218 109 69 48 45 45 42 36 32 29 26 25 24 25 25 27 30 30 28 26 22 13 0 340 318 304 289 277 263 252
266 280 274 298 169 228 238 246 193 226 248 256 259 263 265 241 99 51 39 37 35 32 30 26 20 18 17 17 17 20 25 26 24 24 25 21 15 4 345 325 304 290 279 265
209 251 272 240 235 254 218 212 228 247 246 252 260 260 308 110 131 99 52 34 28 25 21 18 14 10 10 12 13 14 15 16 15 14 14 15 15 12 6 353 334 315 297 278
227 245 259 260 261 267 247 240 239 246 247 246 260 264 108 142 151 161 159 100 32 15 7 4 6 4 4 6 7 6 6 9 5 2 2 5 6 7 7 2 352 336 316 295
203 214 258 265 247 212 228 235 241 249 260 260 264 269 121 183 200 200 202 203 220 354 358 353 355 357 356 355 356 356 357 1 358 354 354 356 358 358 357 353 350 346 332 311
155 233 251 266 275 278 255 262 266 259 259 264 264 273 258 224 227 226 230 240 248 349 355 350 341 343 344 343 345 346 347 351 350 346 347 351 351 349 346 343 343 342 337 324
194 259 263 271 279 283 281 278 273 267 266 270 274 275 275 276 249 242 264 283 281 324 336 336 329 324 326 331 332 335 334 337 338 335 336 339 338 339 337 337 336 333 330 325
225 259 274 273 273 274 271 267 267 269 271 269 268 267 280 179 190 236 265 274 269 306 326 327 325 318 316 323 323 321 320 324 326 324 324 325 327 328 329 329 326 323 322 321
236 252 266 270 277 276 258 249 261 267 267 271 276 291 87 149 251 261 270 268 265 294 316 322 324 321 315 317 318 310 311 311 307 306 309 312 318 322 324 322 319 315 315 313
242 251 260 271 259 255 270 282 263 269 276 291 91 111 187 284 287 270 263 265 260 275 304 318 322 319 318 315 310 305 304 302 298 298 300 304 310 313 315 314 310 307 306 302
232 244 251 256 262 270 277 243 240 253 256 182 161 186 255 282 284 271 262 260 256 267 294 310 316 315 313 312 313 307 301 298 295 295 296 298 302 304 306 305 302 302 299 294
229 231 240 237 254 263 274 176 135 139 258 195 199 222 261 255 280 296 304 280 261 263 288 309 314 311 308 311 315 306 300 298 296 296 295 295 295 293 294 295 295 294 291 286
204 213 226 240 252 265 264 143 155 226 273 186 215 244 263 257 268 289 294 285 267 274 292 304 305 303 304 313 316 305 301 300 302 301 297 294 292 291 290 290 287 287 285 284
233 228 216 223 241 259 143 158 206 241 234 248 271 279 276 271 274 278 281 281 280 289 301 309 309 306 308 315 315 305 301 305 308 304 297 294 293 291 288 286 284 282 280 277
231 231 210 203 240 282 186 214 251 269 274 286 292 290 280 273 274 283 291 293 298 306 314 320 316 307 305 311 311 302 303 310 308 302 298 296 295 290 286 283 281 280 276 271
247 245 252 257 262 265 265 271 276 277 278 284 287 285 278 271 278 290 297 305 311 318 321 321 315 306 303 308 308 303 305 307 304 300 299 298 296 293 288 283 279 276 273 271
250 243 250 259 267 274 270 269 272 277 281 281 275 262 259 267 280 298 306 310 313 316 319 316 308 301 300 304 303 303 303 303 299 297 296 295 292 289 287 281 274 275 268 267
250 249 252 260 266 269 273 275 276 273 271 248 193 175 157 306 303 309 305 312 314 314 315 308 302 298 298 301 300 302 303 301 299 297 296 293 291 288 285 283 280 275 274 276